Content
SEND FEEDBACK

Daily
Averages
Monthly
Summary
United States of America

SUMMERLAND, CALIFORNIA


Home > North America > United States > California
Elevation: 2 feet     Latitude: 34 26N     Longitude: 119 50W

WEATHER
 
SELECT A DAY
Number of Records: 190,549;   Date Range: 1/1/95 - 8/12/14
 
SHARE

PRINT THIS DATA

[ ← Previous Day ]
WEATHER ALMANAC - JANUARY 31, 2013
[ Next Day → ]
[ °C ]   °F
Weather ElementAverageHighLow
Temperature52.5 °F66.9 °F (2:53 pm)39.9 °F (5:53 am)
Dewpoint44.1 °F51.1 °F (6:53 pm)37.9 °F (5:53 am)
Humidity75.9 %93 % (5:53 am)43 % (12:53 pm)
Barometer30.16 in30.23 in (1:53 am)30.11 in (4:53 pm)
Wind Speed1.6 mph6.9 mph (4:53 pm)
Weather ElementAverage
Visibility9.4 mi
Wind DirectionENE (64.1 °)

Weather ElementTotal
Precipitation---
Heating Degree Days11.6 (Base 65)
Growing Degree Days3.4 (Base 50)
Averaged from 22 records on January 31, 2013
WEATHER CONDITIONS BREAKOUT
WIND DIRECTION BREAKOUT
WEATHER BY HOUR - JANUARY 31, 2013
[ °C ]   °F
Local TimeTemperatureDewpointHumidityBarometerVisibilityWind DirectionWind SpeedGust SpeedPrecipitationEventsConditions
1:53 AM44.1 °F39.9 °F85 %30.23 in9.0 miCalmClear
2:53 AM43.0 °F39.9 °F89 %30.21 in10.0 miCalmClear
3:53 AM43.0 °F39.9 °F89 %30.19 in10.0 miCalmClear
4:53 AM42.1 °F39.0 °F89 %30.18 in10.0 miCalmClear
5:53 AM39.9 °F37.9 °F93 %30.19 in10.0 miCalmClear
6:53 AM41.0 °F37.9 °F89 %30.19 in10.0 miCalmClear
7:53 AM44.1 °F41.0 °F89 %30.20 in8.0 miCalmClear
8:53 AM54.0 °F46.0 °F75 %30.21 in10.0 miCalmClear
9:53 AM60.1 °F48.9 °F67 %30.21 in10.0 miSE (130°)3.5 mphClear
10:53 AM62.1 °F46.9 °F58 %30.21 in10.0 miVariable3.5 mphClear
11:53 AM64.0 °F45.0 °F50 %30.19 in10.0 miWSW (250°)3.5 mphClear
12:53 PM66.0 °F43.0 °F43 %30.17 in10.0 miVariable3.5 mphClear
1:53 PM66.0 °F45.0 °F47 %30.14 in10.0 miWSW (240°)5.8 mphClear
2:53 PM66.9 °F45.0 °F45 %30.13 in10.0 miWSW (250°)5.8 mphClear
4:53 PM61.0 °F46.0 °F58 %30.11 in10.0 miWest (260°)6.9 mphClear
5:53 PM55.9 °F50.0 °F80 %30.12 in10.0 miCalmClear
6:53 PM54.0 °F51.1 °F90 %30.12 in7.0 miWest (280°)3.5 mphClear
7:53 PM51.1 °F48.0 °F89 %30.12 in10.0 miCalmClear
8:53 PM50.0 °F46.0 °F86 %30.12 in9.0 miCalmClear
9:53 PM50.0 °F46.0 °F86 %30.11 in9.0 miCalmClear
10:53 PM48.0 °F44.1 °F86 %30.12 in8.0 miCalmClear
11:53 PM48.0 °F44.1 °F86 %30.11 in6.0 miCalmClear
Hourly data recorded from KSBA, located miles away from Summerland, California







STORIES FROM OUR PARTNERS